Nador Arwi current weather conditions

sailwx.info

Wind from 310 at 13 knots

Air temperature 10.0° C
Visibility: greater than 5.4 NM
Dewpoint 1.0° C

Last reported at 2017-Jan-21 15:00 UTC.
Time now 2017-Jan-21 17:30 UTC

Location: N 34°59' W 003°02'.
View on Google Maps.

See reports from other nearby stations

  
Tides and Currents Weather Stations Pressure Air Temp Water Temp Dewpoint Dewpoint Depression Visibility Wind Speed Wind Dir Waves Ship Positions
date/time (UTC)wind fromknots sea level pressurealtimeterstation pressurevisibilityair tempwater tempwave heightnotes
2017-Jan-21 16:00 310 13 5.4 9.0
2017-Jan-21 15:00 310 13 5.410.0
2017-Jan-21 14:00 260 11 5.414.0
2017-Jan-21 13:00 280 8 5.413.0
2017-Jan-21 12:00 250 9 5.411.0
2017-Jan-21 11:00 220 7 5.411.0
2017-Jan-21 10:00 220 8 5.4 8.0
2017-Jan-21 09:00 240 6 5.4 9.0
2017-Jan-21 08:00 210 7 5.4 7.0
2017-Jan-21 07:00 240 6 3.8 4.0
2017-Jan-21 06:00 240 5 3.8 5.0
2017-Jan-21 05:00 230 6 3.8 6.0
2017-Jan-21 04:00 220 8 3.8 7.0
2017-Jan-21 03:00 210 4 3.8 7.0
2017-Jan-21 02:00 150 2 3.8 9.0
2017-Jan-21 01:00 120 0 3.8 8.0
2017-Jan-21 00:00 290 0 3.8 8.0
2017-Jan-20 23:00 240 7 3.8 5.0
2017-Jan-20 22:00 240 6 3.8 8.0
2017-Jan-20 21:44 250 6 3.8 8.0
2017-Jan-20 21:11 300 9 2.7 8.0 Rain.
2017-Jan-20 21:00 300 11 3.8 8.0 Light rain.
2017-Jan-20 20:00 240 6 5.4 9.0 Light rain.
2017-Jan-20 19:00 270 13 5.4 5.0 Light rain.
2017-Jan-20 18:00 280 7 5.410.0
2017-Jan-20 17:00 300 11 5.411.0
2017-Jan-20 16:00 300 14 5.411.0
2017-Jan-20 15:00 290 20 5.411.0
2017-Jan-20 14:00 290 17 5.4 7.0
2017-Jan-20 13:00 270 18 5.4 7.0
2017-Jan-20 12:00 280 18 5.4 8.0
2017-Jan-20 11:00 270 13 5.4 7.0
2017-Jan-20 10:00 230 6 5.4 5.0
2017-Jan-20 09:00 220 7 5.4 3.0
2017-Jan-20 08:00 220 6 5.4 2.0
2017-Jan-20 07:00 190 5 5.4 1.0
2017-Jan-20 06:00 200 4 5.4-0.0
2017-Jan-20 05:00 260 2 5.4-1.0
2017-Jan-20 04:00 250 2 5.4-1.0
2017-Jan-20 03:00 5.4 1.0
2017-Jan-20 02:00 180 4 5.4-0.0
2017-Jan-20 01:00 140 0 5.4-1.0
2017-Jan-20 00:00 5.4 1.0
2017-Jan-19 23:00 5.4 2.0
2017-Jan-19 22:00 190 1 5.4 3.0
2017-Jan-19 21:00 5.4 3.0
2017-Jan-19 20:00 210 4 5.4 3.0
2017-Jan-19 19:00 200 4 5.4 4.0
2017-Jan-19 18:00 190 2 5.4 3.0
2017-Jan-19 17:00 5.4 4.0